Flag for U.S.A. Weather past 2 weeks in Louisville, Kentucky, U.S.A.

Now
24 °F

Passing clouds.


Feels Like: 20 °F
Forecast: 22 / 43 °F
Wind: 3 mph from Southeast

Location: Standiford Field

Current Time: Jan 31, 2015 at 5:57:55 AM

Latest Report: Jan 31, 2015 at 4:56 AM


Visibility: 10 mi

Pressure: 30.41 "Hg

Humidity: 68%

Dew point: 15 °F

Location of LouisvilleLocation

Historic Weather in Louisville — Graph

°F

Louisville temperature yesterday

Maximum temperature yesterday: 40 °F (at 3:56 PM)
Minimum temperature yesterday: 29 °F (at 10:56 PM)
Average temperature yesterday: 35 °F

Past Weeks' High & Low Weather Summary

 TemperatureHumidityPressure
High60 °F (Jan 20, 2:56 PM)96% (Jan 23, 7:56 PM)30.50 "Hg (Jan 23, 7:56 PM)
Low20 °F (Jan 28, 7:56 AM)29% (Jan 19, 2:56 PM)29.61 "Hg (Jan 25, 2:56 PM)
Average38 °F66%30.07 "Hg
* Reported Jan 16 4:56 AM — Jan 31 4:56 AM, Louisville, Weather by CustomWeather, © 2014

Note: Actual official high and low records may vary slightly from our data, if they occured in-between our weather recording intervals... More about our weather records

Advertising

Louisville weather history for previous 24 hours

 ConditionsComfort  
Time TempWeatherWind HumidityBarometerVisibility
4:56 AM
Jan 31
24 °FPassing clouds.3 mph68%30.41 "Hg10 mi
3:56 AM25 °FClear.No wind69%30.42 "Hg10 mi
2:56 AM25 °FClear.3 mph69%30.44 "Hg10 mi
1:56 AM27 °FClear.3 mph63%30.44 "Hg10 mi
12:56 AM27 °FClear.5 mph63%30.45 "Hg10 mi
11:56 PM
Jan 30
29 °FClear.3 mph58%30.47 "Hg10 mi
10:56 PM29 °FPassing clouds.3 mph58%30.47 "Hg10 mi
9:56 PM30 °FPassing clouds.3 mph56%30.46 "Hg10 mi
8:56 PM31 °FPassing clouds.5 mph54%30.47 "Hg10 mi
7:56 PM32 °FPassing clouds.3 mph50%30.47 "Hg10 mi
6:56 PM34 °FClear.6 mph44%30.47 "Hg10 mi
5:56 PM36 °FSunny.6 mph42%30.46 "Hg10 mi
4:56 PM39 °FSunny.10 mph39%30.45 "Hg10 mi
3:56 PM40 °FSunny.6 mph38%30.45 "Hg10 mi
2:56 PM39 °FPassing clouds.7 mph39%30.45 "Hg10 mi
1:56 PM39 °FPassing clouds.10 mph39%30.46 "Hg10 mi
12:56 PM38 °FPassing clouds.13 mph43%30.48 "Hg10 mi
11:56 AM35 °FPartly sunny.17 mph50%30.50 "Hg10 mi
10:56 AM36 °FPartly sunny.18 mph52%30.48 "Hg10 mi
9:56 AM35 °FPartly sunny.18 mph61%30.46 "Hg10 mi
9:02 AM35 °FLight snow. Partly sunny.9 mph67%30.41 "Hg9 mi
8:56 AM35 °FLight snow. Overcast.9 mph67%30.42 "Hg9 mi
7:56 AM35 °FLight snow. Overcast.10 mph67%30.40 "Hg10 mi
6:56 AM36 °FOvercast.12 mph64%30.38 "Hg10 mi
5:56 AM37 °FOvercast.14 mph60%30.35 "Hg10 mi
Weather by CustomWeather, © 2014

See weather overviewHow to use our weather pages